Weather History for PAWG - April, 2013

Change the Weather History Date:

Wednesday, April 17, 2013

  Actual Average Record
Temperature  
Mean Temperature 42 °F -  
Max Temperature 46 °F 49 °F - (-1)
Min Temperature 39 °F 36 °F - (-1)
Degree Days  
Heating Degree Days 22    
Moisture  
Dew Point 36 °F    
Average Humidity 80    
Maximum Humidity 87    
Minimum Humidity 70    
Precipitation  
Precipitation 0.42 in - - ()
Sea Level Pressure  
Sea Level Pressure 30.12 in    
Wind  
Wind Speed 11 mph (East)    
Max Wind Speed 20 mph    
Max Gust Speed 30 mph    
Visibility 7 miles    
Events      
Averages and records for this station are not official NWS values.
T = Trace of Precipitation, MM = Missing Value Source: NWS Daily Summary

Daily Weather History Graph

Daily Weather History Graph

Search for Another Location

Airport or City:

Trip Planner

Search our weather history database for the weather conditions in past years. The results will help you decide how hot, cold, wet, or windy it might be!

Date:

Astronomy

Apr. 17, 2013 Rise Set
Actual Time 5:36 AM AKDT 8:02 PM AKDT
Civil Twilight 4:55 AM AKDT 8:44 PM AKDT
Nautical Twilight 4:01 AM AKDT 9:38 PM AKDT
Astronomical Twilight 2:55 AM AKDT 10:46 PM AKDT
Moon 10:35 AM AKDT (4/17) 2:08 AM AKDT (4/17)
Length of Visible Light 15h 49m
Length of Day
14h 26m
Waxing Crescent, 44% of the Moon is Illuminated
Apr 17
Waxing Crescent
Apr 18
First Quarter
Apr 25
Full
May 2
Last Quarter
May 9
New

Hourly Weather History & Observations

Time (AKDT) Temp. Windchill Dew Point Humidity Pressure Visibility Wind Dir Wind Speed Gust Speed Precip Events Conditions
12:16 AM 39.2 °F 30.8 °F 32.0 °F 75% 30.15 in 10.0 mi ESE 15.0 mph 23.0 mph N/A   Overcast
12:36 AM 39.2 °F 31.6 °F 32.0 °F 75% 30.15 in 10.0 mi ESE 12.7 mph 25.3 mph N/A   Overcast
12:56 AM 39.2 °F 30.8 °F 33.8 °F 81% 30.14 in 10.0 mi ESE 15.0 mph 20.7 mph N/A   Overcast
1:16 AM 39.2 °F 30.8 °F 32.0 °F 75% 30.14 in 9.0 mi ESE 15.0 mph 23.0 mph N/A   Overcast
1:36 AM 39.2 °F 31.2 °F 32.0 °F 75% 30.13 in 7.0 mi ESE 13.8 mph 23.0 mph 0.01 in   Overcast
1:56 AM 39.2 °F 29.6 °F 32.0 °F 75% 30.11 in 10.0 mi ESE 19.6 mph 25.3 mph 0.02 in   Overcast
2:16 AM 39.2 °F 29.8 °F 33.8 °F 81% 30.10 in 8.0 mi East 18.4 mph 25.3 mph N/A   Overcast
2:36 AM 39.2 °F 30.5 °F 32.0 °F 75% 30.09 in 9.0 mi ESE 16.1 mph 29.9 mph 0.01 in   Overcast
2:56 AM 39.2 °F 30.2 °F 33.8 °F 81% 30.09 in 8.0 mi East 17.3 mph 26.5 mph 0.02 in   Overcast
3:16 AM 39.2 °F 30.8 °F 32.0 °F 75% 30.09 in 9.0 mi ESE 15.0 mph 21.9 mph N/A   Overcast
3:36 AM 39.2 °F 30.8 °F 33.8 °F 81% 30.08 in 10.0 mi ESE 15.0 mph 20.7 mph 0.01 in   Overcast
3:56 AM 39.2 °F 30.2 °F 33.8 °F 81% 30.08 in 7.0 mi ESE 17.3 mph 20.7 mph 0.02 in   Overcast
4:16 AM 39.2 °F 30.8 °F 33.8 °F 81% 30.08 in 8.0 mi ESE 15.0 mph 20.7 mph 0.01 in   Overcast
4:36 AM 39.2 °F 30.8 °F 33.8 °F 81% 30.08 in 6.0 mi ESE 15.0 mph 20.7 mph 0.03 in   Overcast
4:56 AM 39.2 °F 31.2 °F 32.0 °F 75% 30.08 in 5.0 mi ESE 13.8 mph 20.7 mph 0.05 in   Overcast
5:16 AM 39.2 °F 30.8 °F 32.0 °F 75% 30.08 in 7.0 mi ESE 15.0 mph 20.7 mph 0.02 in   Overcast
5:36 AM 39.2 °F 30.8 °F 33.8 °F 81% 30.08 in 7.0 mi ESE 15.0 mph 21.9 mph 0.05 in   Overcast
5:56 AM 39.2 °F 29.8 °F 33.8 °F 81% 30.07 in 7.0 mi East 18.4 mph 21.9 mph N/A   Overcast
6:16 AM 39.2 °F 30.5 °F 33.8 °F 81% 30.07 in 7.0 mi ESE 16.1 mph 24.2 mph 0.01 in   Overcast
6:36 AM 39.2 °F 30.2 °F 33.8 °F 81% 30.07 in 7.0 mi ESE 17.3 mph 24.2 mph 0.02 in   Overcast
6:56 AM 39.2 °F 30.5 °F 33.8 °F 81% 30.07 in 7.0 mi ESE 16.1 mph 25.3 mph 0.04 in   Overcast
7:16 AM 39.2 °F 30.2 °F 33.8 °F 81% 30.08 in 7.0 mi ESE 17.3 mph 25.3 mph 0.02 in   Overcast
7:36 AM 39.2 °F 30.2 °F 33.8 °F 81% 30.08 in 7.0 mi ESE 17.3 mph 24.2 mph 0.03 in   Overcast
7:56 AM 39.2 °F 30.5 °F 33.8 °F 81% 30.08 in 7.0 mi ESE 16.1 mph 23.0 mph 0.05 in   Overcast
8:16 AM 39.2 °F 30.5 °F 33.8 °F 81% 30.08 in 7.0 mi ESE 16.1 mph 25.3 mph 0.01 in   Overcast
8:36 AM 39.2 °F 30.5 °F 33.8 °F 81% 30.08 in 7.0 mi ESE 16.1 mph 21.9 mph 0.03 in   Overcast
8:56 AM 41.0 °F 32.5 °F 33.8 °F 76% 30.08 in 10.0 mi ESE 17.3 mph 21.9 mph 0.04 in   Overcast
9:16 AM 41.0 °F 32.8 °F 33.8 °F 76% 30.08 in 10.0 mi ESE 16.1 mph - 0.01 in   Overcast
9:36 AM 41.0 °F 33.1 °F 33.8 °F 76% 30.08 in 10.0 mi ESE 15.0 mph - 0.02 in   Overcast
9:56 AM 41.0 °F 33.5 °F 33.8 °F 76% 30.09 in 10.0 mi SE 13.8 mph 19.6 mph 0.02 in   Overcast
10:16 AM 42.8 °F 35.8 °F 33.8 °F 70% 30.09 in 10.0 mi SE 13.8 mph 19.6 mph N/A   Overcast
10:36 AM 42.8 °F 37.5 °F 33.8 °F 70% 30.10 in 10.0 mi SE 9.2 mph - 0.01 in   Overcast
10:56 AM 42.8 °F 38.6 °F 35.6 °F 76% 30.10 in 10.0 mi SSE 6.9 mph - 0.01 in   Overcast
11:16 AM 42.8 °F 38.6 °F 35.6 °F 76% 30.11 in 10.0 mi SSE 6.9 mph - N/A   Overcast
11:36 AM 42.8 °F - 37.4 °F 81% 30.11 in 10.0 mi Calm Calm - N/A   Overcast
11:56 AM 42.8 °F 39.3 °F 35.6 °F 76% 30.11 in 10.0 mi South 5.8 mph - N/A   Overcast
12:36 PM 42.8 °F 40.1 °F 37.4 °F 81% 30.12 in 10.0 mi West 4.6 mph - N/A   Overcast
12:56 PM 42.8 °F 41.1 °F 37.4 °F 81% 30.12 in 10.0 mi North 3.5 mph - N/A   Overcast
1:16 PM 42.8 °F 40.1 °F 37.4 °F 81% 30.12 in 10.0 mi WNW 4.6 mph - N/A   Overcast
1:36 PM 44.6 °F 40.7 °F 37.4 °F 76% 30.12 in 10.0 mi NW 6.9 mph - N/A   Overcast
1:56 PM 44.6 °F 43.1 °F 37.4 °F 76% 30.13 in 10.0 mi NE 3.5 mph - N/A   Overcast
2:16 PM 44.6 °F 43.1 °F 39.2 °F 81% 30.14 in 10.0 mi East 3.5 mph - N/A   Overcast
2:36 PM 44.6 °F - 39.2 °F 81% 30.13 in 10.0 mi Calm Calm - N/A   Overcast
2:56 PM 46.4 °F - 39.2 °F 76% 30.13 in 10.0 mi Calm Calm - N/A   Overcast
3:16 PM 44.6 °F 42.2 °F 39.2 °F 81% 30.13 in 10.0 mi NNW 4.6 mph - N/A   Overcast
3:36 PM 46.4 °F 44.3 °F 39.2 °F 76% 30.14 in 10.0 mi North 4.6 mph - N/A   Overcast
3:56 PM 46.4 °F 44.3 °F 39.2 °F 76% 30.13 in 10.0 mi North 4.6 mph - N/A   Overcast
4:16 PM 44.6 °F 42.2 °F 39.2 °F 81% 30.14 in 10.0 mi North 4.6 mph - N/A   Overcast
4:36 PM 44.6 °F 43.1 °F 41.0 °F 87% 30.14 in 3.0 mi North 3.5 mph - N/A   Overcast
4:56 PM 44.6 °F 43.1 °F 41.0 °F 87% 30.14 in 3.0 mi NNW 3.5 mph - N/A   Overcast
5:16 PM 44.6 °F 43.1 °F 39.2 °F 81% 30.15 in 3.0 mi North 3.5 mph - N/A   Overcast
5:36 PM 44.6 °F - 41.0 °F 87% 30.15 in 3.0 mi Calm Calm - N/A   Overcast
5:56 PM 44.6 °F - 41.0 °F 87% 30.15 in 3.0 mi Calm Calm - 0.01 in   Overcast
6:16 PM 44.6 °F 43.1 °F 41.0 °F 87% 30.15 in 3.0 mi East 3.5 mph - 0.01 in   Overcast
6:36 PM 44.6 °F - 39.2 °F 81% 30.15 in 3.0 mi Calm Calm - 0.01 in   Overcast
6:56 PM 44.6 °F 43.1 °F 39.2 °F 81% 30.15 in 3.0 mi SE 3.5 mph - 0.03 in   Overcast
7:16 PM 44.6 °F 43.1 °F 41.0 °F 87% 30.15 in 3.0 mi SE 3.5 mph - 0.01 in   Overcast
7:36 PM 44.6 °F 43.1 °F 41.0 °F 87% 30.14 in 3.0 mi SE 3.5 mph - 0.01 in   Overcast
7:56 PM 44.6 °F - 39.2 °F 81% 30.15 in 3.0 mi Calm Calm - 0.01 in   Overcast
8:16 PM 44.6 °F - 39.2 °F 81% 30.15 in 3.0 mi Calm Calm - 0.01 in   Overcast
8:36 PM 44.6 °F - 39.2 °F 81% 30.15 in 3.0 mi Calm Calm - 0.01 in   Overcast
8:56 PM 44.6 °F - 41.0 °F 87% 30.16 in 3.0 mi Calm Calm - 0.01 in   Overcast
9:16 PM 42.8 °F - 39.2 °F 87% 30.16 in 3.0 mi Calm Calm - N/A   Overcast
9:36 PM 42.8 °F - 39.2 °F 87% 30.16 in 3.0 mi Calm Calm - N/A   Overcast
9:56 PM 44.6 °F 43.1 °F 39.2 °F 81% 30.17 in 3.0 mi NNW 3.5 mph - N/A   Overcast
10:16 PM 42.8 °F - 39.2 °F 87% 30.17 in 3.0 mi Calm Calm - 0.02 in   Overcast
10:36 PM 42.8 °F - 39.2 °F 87% 30.16 in 3.0 mi Calm Calm - 0.03 in   Overcast
10:56 PM 42.8 °F 40.1 °F 39.2 °F 87% 30.16 in 3.0 mi North 4.6 mph - 0.04 in   Overcast
11:16 PM 42.8 °F 41.1 °F 39.2 °F 87% 30.16 in 3.0 mi NNE 3.5 mph - N/A   Overcast
11:36 PM 42.8 °F 41.1 °F 39.2 °F 87% 30.16 in 9.0 mi North 3.5 mph - N/A   Overcast
11:56 PM 42.8 °F 41.1 °F 39.2 °F 87% 30.16 in 2.5 mi North 3.5 mph - N/A   Overcast